Location: Olomouc
(49.5830°N, 17.2500°E)
Time: 19:35:06
(UTC+02:00)

ISS - Pass Details

Date: 15 May 2021
Orbit: 417 x 422 km, 51.6° (Epoch: 14 June)

Event Time Altitude Azimuth Distance (km) Brightness Sun altitude
Rises 02:02:42 0° 285° (WNW) 2,372 0.0 -19.5°
Reaches altitude 10° 02:04:48 10° 287° (WNW) 1,507 -1.0 -19.4°
Maximum altitude 02:08:11 72° 13° (NNE) 448 -3.6 -19.2°
Drops below altitude 10° 02:11:34 10° 98° (E) 1,507 -0.8 -19.0°
Sets 02:13:40 0° 100° (E) 2,371 0.2 -18.9°
